Flag for U.S.A. Weather past 2 weeks in Salina, Kansas, U.S.A.

Now
65 °F

Fog.


Feels Like: 65 °F
Forecast: 68 / 83 °F
Wind: 7 mph from Northwest

Location: Salina Municipal Airport

Current Time: Jul 3, 2015 at 5:43:54 AM

Latest Report: Jul 3, 2015 at 4:53 AM


Visibility: 6 mi

Pressure: 29.90 "Hg

Humidity: 91%

Dew point: 62 °F

Location of SalinaLocation

Historic Weather in Salina — Graph

°F

Salina temperature yesterday

Maximum temperature yesterday: 84 °F (at 5:53 PM)
Minimum temperature yesterday: 70 °F (at 10:53 PM)
Average temperature yesterday: 78 °F

Past Weeks' High & Low Weather Summary

 TemperatureHumidityPressure
High104 °F (Jun 22, 3:53 PM)93% (Jun 18, 4:53 AM)30.11 "Hg (Jun 18, 4:53 AM)
Low62 °F (Jun 29, 6:53 AM)20% (Jun 30, 4:53 PM)29.69 "Hg (Jun 20, 6:53 PM)
Average82 °F56%29.89 "Hg
* Reported Jun 18 3:53 AM — Jul 3 3:53 AM, Salina, Weather by CustomWeather, © 2015

Note: Actual official high and low records may vary slightly from our data, if they occured in-between our weather recording intervals... More about our weather records

Advertising

Salina weather history for previous 24 hours

 ConditionsComfort  
Time TempWeatherWind HumidityBarometerVisibility
3:53 AM
Fri, Jul 3
67 °FClear.6 mph87%29.90 "Hg8 mi
2:53 AM68 °FClear.3 mph87%29.90 "Hg10 mi
1:53 AM68 °FClear.5 mph87%29.90 "Hg10 mi
12:53 AM70 °FClear.6 mph81%29.90 "Hg10 mi
11:53 PM
Thu, Jul 2
70 °FClear.7 mph81%29.90 "Hg10 mi
10:53 PM70 °FClear.5 mph81%29.89 "Hg10 mi
9:53 PM73 °FBroken clouds.12 mph76%29.88 "Hg10 mi
8:53 PM80 °FSunny.6 mph69%29.84 "Hg10 mi
7:53 PM83 °FSunny.7 mph59%29.83 "Hg10 mi
6:53 PM84 °FSunny.10 mph57%29.83 "Hg10 mi
5:53 PM84 °FSunny.14 mph57%29.85 "Hg10 mi
4:53 PM83 °FScattered clouds.9 mph63%29.88 "Hg10 mi
3:53 PM82 °FPartly sunny.7 mph72%29.91 "Hg8 mi
2:53 PM78 °FPassing clouds.5 mph79%29.89 "Hg7 mi
1:53 PM77 °FLight rain. Broken clouds.8 mph85%29.90 "Hg6 mi
12:53 PM76 °FLight rain. Overcast.No wind85%29.93 "Hg8 mi
11:53 AM76 °FLight rain. Partly sunny.6 mph85%29.89 "Hg5 mi
11:01 AM76 °FLight rain. Broken clouds.6 mph82%29.95 "Hg6 mi
10:04 AM78 °FMostly cloudy.9 mph76%29.94 "Hg9 mi
9:53 AM78 °FMostly cloudy.7 mph76%29.89 "Hg9 mi
8:53 AM78 °FSunny.6 mph79%29.86 "Hg8 mi
7:53 AM77 °FSunny.8 mph82%29.86 "Hg7 mi
6:53 AM77 °FMostly cloudy.7 mph82%29.86 "Hg8 mi
5:53 AM77 °FOvercast.5 mph82%29.84 "Hg9 mi
Weather by CustomWeather, © 2015

See weather overviewHow to use our weather pages